Flag for Germany Weather past 2 weeks in Zittau, Saxony, Germany

Now
56 °F

Partly sunny.


Feels Like: 55 °F
Forecast: 42 / 68 °F
Wind: 5 mph from Southwest

Location: Liberec

Current Time: May 30, 2015 at 9:18:27 AM

Latest Report: May 30, 2015 at 8:00 AM


Visibility: 25 mi

Pressure: 29.85 "Hg

Humidity: 72%

Dew point: 47 °F

Location of ZittauLocation

Historic Weather in Zittau — Graph

°F

Zittau temperature yesterday

Maximum temperature yesterday: 68 °F (at 4:00 PM)
Minimum temperature yesterday: 48 °F (at 6:00 AM)
Average temperature yesterday: 59 °F

Past Weeks' High & Low Weather Summary

 TemperatureHumidityPressure
High68 °F (May 29, 4:00 PM)97% (May 21, 1:00 AM)30.34 "Hg (May 21, 1:00 AM)
Low36 °F (May 16, 5:00 AM)30% (May 15, 5:00 PM)29.68 "Hg (May 19, 4:00 AM)
Average53 °F67%30.03 "Hg
* Reported May 15 8:00 AM — May 30 8:00 AM, Zittau, Weather by CustomWeather, © 2015

Note: Actual official high and low records may vary slightly from our data, if they occured in-between our weather recording intervals... More about our weather records

Advertising

Zittau weather history for previous 24 hours

 ConditionsComfort  
Time TempWeatherWind HumidityBarometerVisibility
8:00 AM
Sat, May 30
56 °FPartly sunny.5 mph72%29.85 "Hg25 mi
7:00 AM55 °FCool.5 mph76%29.85 "Hg12 mi
6:00 AM55 °FCool.6 mph76%29.84 "Hg12 mi
5:00 AM53 °FCool.3 mph84%29.82 "Hg12 mi
4:00 AM54 °FCool.2 mph79%29.83 "Hg12 mi
3:00 AM54 °FCool.5 mph84%29.82 "Hg12 mi
2:00 AM55 °FCool.3 mph88%29.82 "Hg12 mi
1:00 AM55 °FRain showers. Overcast.3 mph86%29.82 "Hg12 mi
12:00 AM56 °FRain showers. Overcast.5 mph80%29.84 "Hg12 mi
11:00 PM
Fri, May 29
56 °FLight rain. Overcast.3 mph79%29.84 "Hg11 mi
10:00 PM57 °FPassing clouds.3 mph76%29.83 "Hg17 mi
9:00 PM57 °FOvercast.2 mph76%29.82 "Hg19 mi
8:00 PM58 °FOvercast.5 mph71%29.82 "Hg22 mi
7:00 PM60 °FCool.5 mph68%29.83 "Hg12 mi
6:00 PM66 °FMild.3 mph49%29.80 "Hg12 mi
5:00 PM65 °FOvercast.5 mph45%29.81 "Hg22 mi
4:00 PM68 °FPartly sunny.5 mph38%29.82 "Hg25 mi
3:00 PM67 °FPartly sunny.5 mph39%29.84 "Hg25 mi
2:00 PM66 °FPartly sunny.3 mph39%29.87 "Hg25 mi
1:00 PM64 °FPartly sunny.3 mph42%29.88 "Hg25 mi
12:00 PM63 °FPartly sunny.3 mph47%29.91 "Hg22 mi
11:00 AM63 °FPartly sunny.3 mph46%29.92 "Hg22 mi
10:00 AM62 °FScattered clouds.1 mph53%29.93 "Hg22 mi
9:00 AM60 °FScattered clouds.1 mph53%29.93 "Hg19 mi
Weather by CustomWeather, © 2015

See weather overviewHow to use our weather pages